Location: Unspecified
(44.0704°N, 88.6889°W)
Time: 19:19:03
(UTC+02:00)

Okean 3 - Pass Details

Date: 02 April 2019
Orbit: 577 x 600 km, 82.5° (Epoch: 20 October)

Event Time Altitude Azimuth Distance (km) Brightness Sun altitude
Exits shadow 11:46:51 46° 237° (WSW) 807 3.7 -19.2°
Maximum altitude 11:47:42 56° 281° (W) 719 3.6 -19.1°
Drops below altitude 10° 11:51:57 10° 0° (N) 1,949 6.4 -18.4°
Sets 11:54:12 0° 5° (N) 2,854 7.4 -18.1°
